Location: Boulin
(43.2500°N, 0.1333°E)
Time: 23:18:02
(UTC+00:00)

Cosmos 2098 Rocket - Pass Details

Date: 11 December 2025
Orbit: 349 x 864 km, 82.9° (Epoch: 19 January)

Event Time Altitude Azimuth Distance (km) Brightness Sun altitude
Rises 17:20:11 0° 199° (SSW) 2,646 7.0 -10.0°
Reaches altitude 10° 17:22:12 10° 205° (SSW) 1,842 6.2 -10.3°
Maximum altitude 17:26:11 52° 282° (WNW) 781 3.9 -11.0°
Drops below altitude 10° 17:30:56 10° 359° (N) 2,184 5.7 -11.8°
Sets 17:33:30 0° 4° (N) 3,194 6.5 -12.2°
